Weather in Isakli

Russia / Samara Oblast     54°07′50″N   51°32′12″E
temp.,
°C
wind,
m/s
gust,
m/s
humid.,
%
clouds,
%
prec.,
mm/h
press.,
hPa
HPBL,
m
27 february, sat
sat2701:00−13sse101894100 2.6 1005571
04:00−11sse91594100 8.7 1002577
07:00−10sse71294100 0.4 999384
10:00−7sse5995100 1.2 998280
13:00−2s4697100 0.9 997268
16:000wsw47100100 2.1 997311
19:000wsw3599100 1.3 997227
22:00−6nw579599 2.1 998194
28 february, sun
sun2801:00−11nw599595 0.0 998217
04:00−12nnw5109497 0.1 1000270
07:00−12nnw61093100 0.1 1002332
10:00−12nnw6993100 0.1 1004396
13:00−12nnw6892100 0.1 1006436
16:00−12nnw5891100 0.1 1008495
19:00−13nnw499497 0.1 1010326
22:00−14nnw489593 0.1 1013244
1 march, mon
mon101:00−16nnw379690 0.1 1014170
04:00−19nw359888 0.1 1016101
07:00−22nnw339863 0.0 101848
10:00−19nnw369542 0.0 1020225
13:00−16nnw359360 0.0 1021279
16:00−15nw469377 0.0 1022374
19:00−20nw239978 0.0 102120
22:00−22wsw1110039 0.0 102220
2 march, tue
tue201:00−22ssw2310017 0.0 102024
04:00−21s369948 0.0 1017120
07:00−18s4998100 0.0 1014246
10:00−14s61295100 0.1 1011353
13:00−10ssw71294100 0.6 1007516
16:00−7ssw71394100 1.1 1005599
19:00−6s61295100 0.7 1002541
22:00−5s51196100 1.3 1000411
3 march, wed
wed301:00−5ssw489799 0.6 999234
04:00−3sw3698100 0.8 999209
07:00−5wnw489797 0.2 999224
10:00−6nw589497 0.3 1000348
13:00−5nw689398 0.1 1001480
16:00−4nw699199 0.2 1003661
19:00−5nw51091100 0.1 1004570
22:00−6nw5129495 0.2 1006397